FW2928 Weather Reports


time (UTC)temp
F
wind
direction
speed
knots
gust
knots
rain 1hr
in
rain 24hr
in
rain mn
in
humidity
%
barometer
mb
20260906113102 92 80 0.0 0.0 0.00 0.00 0.00 41 1019.9
20260906112814 93 167 0.0 0.0 0.00 0.00 0.00 44 1019.9
20260906112314 92 205 0.0 0.0 0.00 0.00 0.00 44 1020.1
20260906111823 92 72 0.0 0.0 0.00 0.00 0.00 42 1020.0
20260906111555 92 240 0.0 0.0 0.00 0.00 0.00 43 1020.0
20260906111352 92 220 0.0 0.0 0.00 0.00 0.00 44 1020.1
20260906110832 92 68 0.0 0.0 0.00 0.00 0.00 44 1020.1
20260906110313 90 77 0.0 0.9 0.00 0.00 0.00 44 1020.2
20260906110020 90 75 0.0 6.1 0.00 0.00 0.00 45 1020.1
20260906105842 91 68 0.0 6.1 0.00 0.00 0.00 46 1020.2
20260906105351 91 326 0.0 0.9 0.00 0.00 0.00 45 1020.2
20260906104830 91 243 0.0 0.0 0.00 0.00 0.00 46 1020.3
20260906104534 90 262 0.0 0.0 0.00 0.00 0.00 47 1020.3
20260906104339 90 214 0.0 0.0 0.00 0.00 0.00 47 1020.4
20260906103820 89 194 0.0 0.0 0.00 0.00 0.00 48 1020.3
20260906103322 88 263 0.0 0.0 0.00 0.00 0.00 50 1020.4
20260906103023 88 77 0.0 0.0 0.00 0.00 0.00 49 1020.4
20260906102831 88 46 0.0 0.0 0.00 0.00 0.00 49 1020.4
20260906102338 88 259 0.0 0.0 0.00 0.00 0.00 50 1020.6
20260906101837 88 248 0.0 0.0 0.00 0.00 0.00 50 1020.6
20260906101531 87 269 0.0 0.0 0.00 0.00 0.00 51 1020.6
20260906101324 88 291 0.0 0.0 0.00 0.00 0.00 50 1020.7
20260906100830 88 268 0.0 0.0 0.00 0.00 0.00 51 1020.7
20260906100332 88 281 0.0 0.0 0.00 0.00 0.00 51 1020.8
20260906100047 88 294 0.0 0.0 0.00 0.00 0.00 51 1020.7
20260906095814 88 288 0.0 0.0 0.00 0.00 0.00 51 1020.8
20260906095322 88 162 0.0 0.0 0.00 0.00 0.00 52 1020.9
20260906094850 87 282 0.0 0.0 0.00 0.00 0.00 53 1020.9
20260906094607 86 293 0.0 0.0 0.00 0.00 0.00 53 1020.9
20260906094332 86 281 0.0 0.0 0.00 0.00 0.00 54 1020.8
20260906093838 86 282 0.0 0.0 0.00 0.00 0.00 54 1021.0
20260906093340 86 250 0.0 0.0 0.00 0.00 0.00 55 1021.0
20260906093041 85 280 0.0 0.0 0.00 0.00 0.00 55 1020.9
20260906092827 86 275 0.0 0.0 0.00 0.00 0.00 55 1020.9
20260906092329 85 302 0.0 0.0 0.00 0.00 0.00 56 1020.9
20260906091837 85 286 0.0 0.0 0.00 0.00 0.00 57 1021.0
20260906091514 85 290 0.0 0.0 0.00 0.00 0.00 56 1020.9
20260906091318 85 115 0.0 0.0 0.00 0.00 0.00 58 1021.0
20260906090818 86 277 0.0 0.0 0.00 0.00 0.00 56 1020.9
20260906090322 85 238 0.0 0.0 0.00 0.00 0.00 58 1021.0
20260906090110 84 280 0.0 0.0 0.00 0.00 0.00 58 1020.9
20260906085823 84 280 0.0 0.0 0.00 0.00 0.00 58 1021.0
20260906085331 84 272 0.0 0.0 0.00 0.00 0.00 59 1020.9
20260906084823 84 299 0.0 0.0 0.00 0.00 0.00 60 1021.0
20260906084532 83 274 0.0 0.0 0.00 0.00 0.00 61 1020.8
20260906084333 83 274 0.0 0.0 0.00 0.00 0.00 61 1020.8
20260906083814 83 274 0.0 0.0 0.00 0.00 0.00 62 1020.9
20260906083322 83 278 0.0 0.0 0.00 0.00 0.00 63 1020.9
20260906083058 82 280 0.0 0.0 0.00 0.00 0.00 63 1020.8
20260906082823 82 290 0.0 0.0 0.00 0.00 0.00 63 1020.9
20260906082332 82 315 0.0 0.0 0.00 0.00 0.00 63 1020.8
20260906081834 82 65 0.0 0.0 0.00 0.00 0.00 63 1020.8
20260906081529 81 65 0.0 0.0 0.00 0.00 0.00 65 1020.8
20260906081342 81 65 0.0 0.0 0.00 0.00 0.00 64 1020.9
20260906080823 81 65 0.0 0.0 0.00 0.00 0.00 64 1021.0
20260906080331 82 84 0.0 0.0 0.00 0.00 0.00 64 1020.9
20260906080001 80 230 0.0 0.0 0.00 0.00 0.00 67 1020.7
20260906075814 81 230 0.0 0.0 0.00 0.00 0.00 67 1020.9
20260906075316 80 94 0.0 0.0 0.00 0.00 0.00 69 1020.9
20260906074844 79 94 0.0 0.0 0.00 0.00 0.00 69 1020.9
20260906074544 79 94 0.0 0.0 0.00 0.00 0.00 69 1020.8
20260906074351 79 94 0.0 0.0 0.00 0.00 0.00 69 1020.8
20260906073831 79 93 0.0 0.0 0.00 0.00 0.00 71 1020.7
20260906073322 78 93 0.0 0.0 0.00 0.00 0.00 72 1020.7
20260906073005 77 301 0.0 0.0 0.00 0.00 0.00 73 1020.6
20260906072822 78 301 0.0 0.0 0.00 0.00 0.00 73 1020.7
20260906072330 77 301 0.0 0.0 0.00 0.00 0.00 74 1020.7
20260906071832 76 301 0.0 0.0 0.00 0.00 0.00 74 1020.5
20260906071538 76 301 0.0 0.0 0.00 0.00 0.00 74 1020.5
20260906071314 77 301 0.0 0.0 0.00 0.00 0.00 75 1020.6
20260906070824 76 301 0.0 0.0 0.00 0.00 0.00 76 1020.6
20260906070326 76 301 0.0 0.0 0.00 0.00 0.00 76 1020.5
20260906070031 75 301 0.0 0.0 0.00 0.00 0.00 78 1020.5
20260906065835 75 301 0.0 0.0 0.00 0.00 0.00 78 1020.5
20260906065318 74 301 0.0 0.0 0.00 0.00 0.00 79 1020.6
20260906064820 74 301 0.0 0.0 0.00 0.00 0.00 78 1020.5
20260906064523 74 301 0.0 0.0 0.00 0.00 0.00 79 1020.4
20260906064330 74 285 0.0 0.0 0.00 0.00 0.00 80 1020.5
20260906063829 74 287 0.0 0.0 0.00 0.00 0.00 79 1020.5
20260906063338 74 301 0.0 0.0 0.00 0.00 0.00 79 1020.4
20260906063013 74 301 0.0 0.0 0.00 0.00 0.00 78 1020.3
20260906062818 74 53 0.0 0.0 0.00 0.00 0.00 78 1020.3
20260906062320 74 113 0.0 0.0 0.00 0.00 0.00 78 1020.3
20260906061829 74 109 0.0 0.0 0.00 0.00 0.00 78 1020.3
20260906061506 73 109 0.0 0.0 0.00 0.00 0.00 79 1020.2
20260906061330 74 109 0.0 0.0 0.00 0.00 0.00 80 1020.2
20260906060838 73 109 0.0 0.0 0.00 0.00 0.00 81 1020.2
20260906060320 72 109 0.0 0.0 0.00 0.00 0.00 83 1020.1
20260906060059 71 109 0.0 0.0 0.00 0.00 0.00 83 1020.0
20260906055822 71 109 0.0 0.0 0.00 0.00 0.00 83 1020.2
20260906055330 71 109 0.0 0.0 0.00 0.00 0.00 84 1020.1
20260906054839 71 109 0.0 0.0 0.00 0.00 0.00 84 1020.0
20260906054509 70 71 0.0 0.0 0.00 0.00 0.00 85 1019.9
20260906054321 70 71 0.0 0.0 0.00 0.00 0.00 86 1019.9
20260906053852 69 71 0.0 0.0 0.00 0.00 0.00 86 1019.9
20260906053332 69 71 0.0 0.0 0.00 0.00 0.00 87 1019.8
20260906053052 68 71 0.0 0.0 0.00 0.00 0.00 87 1019.8
20260906052814 68 71 0.0 0.0 0.00 0.00 0.00 88 1019.9
20260906052323 68 71 0.0 0.0 0.00 0.00 0.00 88 1019.8
20260906051821 68 71 0.0 0.0 0.00 0.00 0.00 88 1019.7
20260906051536 67 71 0.0 0.0 0.00 0.00 0.00 88 1019.6
20260906051329 67 71 0.0 0.0 0.00 0.00 0.00 88 1019.8
20260906050829 67 71 0.0 0.0 0.00 0.00 0.00 88 1019.7
20260906050318 67 71 0.0 0.0 0.00 0.00 0.00 88 1019.6
20260906045830 67 71 0.0 0.0 0.00 0.00 0.00 88 1019.7
20260906045339 67 71 0.0 0.0 0.00 0.00 0.00 88 1019.5
20260906044821 67 71 0.0 0.0 0.00 0.00 0.00 88 1019.5
20260906044544 67 71 0.0 0.0 0.00 0.00 0.00 88 1019.3
20260906044324 67 71 0.0 0.0 0.00 0.00 0.00 87 1019.4
20260906043813 68 71 0.0 0.0 0.00 0.00 0.00 88 1019.3
20260906043314 68 71 0.0 0.0 0.00 0.00 0.00 87 1019.2
20260906043036 67 71 0.0 0.0 0.00 0.00 0.00 87 1019.1
20260906042822 68 71 0.0 0.0 0.00 0.00 0.00 87 1019.2
20260906042324 68 71 0.0 0.0 0.00 0.00 0.00 87 1019.2
20260906041833 68 71 0.0 0.0 0.00 0.00 0.00 87 1019.3
20260906041505 68 71 0.0 0.0 0.00 0.00 0.00 87 1019.1
20260906041315 68 210 0.0 0.0 0.00 0.00 0.00 87 1019.1
20260906040823 68 210 0.0 0.0 0.00 0.00 0.00 87 1019.1
20260906040323 68 210 0.0 0.0 0.00 0.00 0.00 87 1019.1
20260906040018 68 80 0.0 0.0 0.00 0.00 0.00 87 1019.0
20260906035831 68 80 0.0 0.0 0.00 0.00 0.00 87 1019.1
20260906035313 68 80 0.0 0.0 0.00 0.00 0.00 87 1019.1
20260906034820 68 80 0.0 0.0 0.00 0.00 0.00 87 1019.1
20260906034547 68 80 0.0 0.0 0.00 0.00 0.00 87 1019.0
20260906034323 68 80 0.0 0.0 0.00 0.00 0.00 87 1019.1
20260906033833 69 80 0.0 0.0 0.00 0.00 0.00 87 1019.1
20260906033315 69 80 0.0 0.0 0.00 0.00 0.00 87 1019.1
20260906033045 69 80 0.0 0.0 0.00 0.00 0.00 87 1019.1
20260906032816 69 80 0.0 0.0 0.00 0.00 0.00 87 1019.2
20260906032325 69 80 0.0 0.0 0.00 0.00 0.00 86 1019.2
20260906031827 70 80 0.0 0.0 0.00 0.00 0.00 86 1019.2
20260906031538 69 80 0.0 0.0 0.00 0.00 0.00 86 1019.0
20260906031336 70 80 0.0 0.0 0.00 0.00 0.00 86 1019.1
20260906030819 70 80 0.0 0.0 0.00 0.00 0.00 86 1019.1
20260906030321 70 86 0.0 0.0 0.00 0.00 0.00 86 1019.2
20260906030032 69 87 0.0 0.0 0.00 0.00 0.00 87 1019.1
20260906025830 70 79 0.0 0.0 0.00 0.00 0.00 87 1019.1
20260906025332 70 79 0.0 0.0 0.00 0.00 0.00 87 1019.1
20260906024815 70 76 0.0 0.0 0.00 0.00 0.00 87 1019.1
20260906024518 69 84 0.0 0.0 0.00 0.00 0.00 87 1019.1
20260906024323 70 84 0.0 0.0 0.00 0.00 0.00 87 1019.2
20260906023825 69 92 0.0 0.0 0.00 0.00 0.00 87 1019.2
20260906023334 69 62 0.0 0.0 0.00 0.00 0.00 87 1019.2
20260906023011 69 82 0.0 0.0 0.00 0.00 0.00 87 1019.3
20260906022816 69 80 0.0 0.0 0.00 0.00 0.00 87 1019.3
20260906022324 69 84 0.0 0.0 0.00 0.00 0.00 87 1019.2
20260906021826 69 96 0.0 0.0 0.00 0.00 0.00 87 1019.2
20260906021546 69 101 0.0 0.0 0.00 0.00 0.00 87 1019.2
20260906021355 69 86 0.0 0.0 0.00 0.00 0.00 87 1019.2
20260906020816 69 90 0.0 0.0 0.00 0.00 0.00 87 1019.2
20260906020343 69 93 0.0 0.0 0.00 0.00 0.00 87 1019.2
20260906020100 68 93 0.0 0.0 0.00 0.00 0.00 86 1019.0
20260906015824 69 88 0.0 0.0 0.00 0.00 0.00 86 1019.3
20260906015331 69 94 0.0 0.0 0.00 0.00 0.00 86 1019.3
20260906014813 69 94 0.0 0.0 0.00 0.00 0.00 86 1019.3
20260906014552 69 94 0.0 0.0 0.00 0.00 0.00 86 1019.2
20260906014402 69 94 0.0 0.0 0.00 0.00 0.00 86 1019.3
20260906013847 70 94 0.0 0.0 0.00 0.00 0.00 86 1019.3
20260906013327 70 94 0.0 0.0 0.00 0.00 0.00 86 1019.4
20260906013037 69 94 0.0 0.0 0.00 0.00 0.00 86 1019.2
20260906012836 70 92 0.0 0.0 0.00 0.00 0.00 86 1019.4
20260906012318 70 83 0.0 0.0 0.00 0.00 0.00 85 1019.3
20260906011819 70 83 0.0 0.0 0.00 0.00 0.00 85 1019.3
20260906011531 70 83 0.0 0.0 0.00 0.00 0.00 85 1019.3
20260906011329 71 83 0.0 0.0 0.00 0.00 0.00 85 1019.2
20260906010830 71 83 0.0 0.0 0.00 0.00 0.00 85 1019.2
20260906010336 71 83 0.0 0.0 0.00 0.00 0.00 85 1019.1
20260906010129 70 83 0.0 0.0 0.00 0.00 0.00 85 1019.1
20260906005838 71 83 0.0 0.0 0.00 0.00 0.00 85 1019.2
20260906005327 71 83 0.0 0.0 0.00 0.00 0.00 85 1019.1
20260906004829 71 83 0.0 0.0 0.00 0.00 0.00 85 1019.1
20260906004529 70 83 0.0 0.0 0.00 0.00 0.00 85 1019.0
20260906004337 71 83 0.0 0.0 0.00 0.00 0.00 85 1019.1
20260906003836 71 83 0.0 0.0 0.00 0.00 0.00 84 1019.1
20260906003323 71 83 0.0 0.0 0.00 0.00 0.00 84 1019.0
20260906003102 70 81 0.0 0.0 0.00 0.00 0.00 84 1019.0
20260906002844 71 82 0.0 0.0 0.00 0.00 0.00 84 1019.1
20260906002331 71 81 0.0 0.0 0.00 0.00 0.00 84 1019.1
20260906001832 71 79 0.0 0.0 0.00 0.00 0.00 84 1019.2
20260906001554 70 84 0.0 0.0 0.00 0.00 0.00 84 1019.2
20260906001315 71 84 0.0 0.0 0.00 0.00 0.00 84 1019.2
20260906000824 71 84 0.0 0.0 0.00 0.00 0.00 84 1019.3
20260906000326 71 90 0.0 0.0 0.00 0.00 0.00 84 1019.3
20260906000024 71 90 0.0 0.0 0.00 0.00 0.00 84 1019.3
20260905235832 71 90 0.0 0.0 0.00 0.00 0.00 84 1019.4
20260905235313 71 90 0.0 0.0 0.00 0.00 0.00 84 1019.4
20260905234815 71 90 0.0 0.0 0.00 0.00 0.00 84 1019.3
20260905234516 71 90 0.0 0.0 0.00 0.00 0.00 84 1019.3
20260905234344 71 90 0.0 0.0 0.00 0.00 0.00 84 1019.4
20260905233853 71 91 0.0 0.0 0.00 0.00 0.00 84 1019.4
20260905233359 71 90 0.0 0.0 0.00 0.00 0.00 83 1019.3
20260905233006 71 91 0.0 0.0 0.00 0.00 0.00 83 1019.3
20260905232841 71 90 0.0 0.0 0.00 0.00 0.00 83 1019.4
20260905232345 71 90 0.0 0.0 0.00 0.00 0.00 83 1019.4
20260905231835 71 90 0.0 0.0 0.00 0.00 0.00 83 1019.4
20260905231533 71 90 0.0 0.0 0.00 0.00 0.00 83 1019.4
20260905231334 71 91 0.0 0.0 0.00 0.00 0.00 83 1019.5
20260905230816 71 90 0.0 0.0 0.00 0.00 0.00 82 1019.5
20260905230324 72 90 0.0 0.0 0.00 0.00 0.00 83 1019.6
20260905230106 71 90 0.0 0.0 0.00 0.00 0.00 83 1019.5
20260905225827 72 90 0.0 0.0 0.00 0.00 0.00 82 1019.6
20260905225337 72 90 0.0 0.0 0.00 0.00 0.00 82 1019.5
20260905224817 72 90 0.0 0.0 0.00 0.00 0.00 82 1019.6
20260905224531 72 90 0.0 0.0 0.00 0.00 0.00 82 1019.6
20260905224346 72 90 0.0 0.0 0.00 0.00 0.00 82 1019.5
20260905223830 72 90 0.0 0.0 0.00 0.00 0.00 82 1019.6
20260905223331 72 91 0.0 0.0 0.00 0.00 0.00 82 1019.5
20260905223037 72 91 0.0 0.0 0.00 0.00 0.00 82 1019.5
20260905222821 72 91 0.0 0.0 0.00 0.00 0.00 82 1019.5
20260905222321 73 90 0.0 0.0 0.00 0.00 0.00 82 1019.4
20260905221824 73 91 0.0 0.0 0.00 0.00 0.00 82 1019.4
20260905221516 72 91 0.0 0.0 0.00 0.00 0.00 81 1019.3
20260905221329 73 90 0.0 0.0 0.00 0.00 0.00 81 1019.4
20260905220831 73 90 0.0 0.0 0.00 0.00 0.00 81 1019.4
20260905220339 73 91 0.0 0.0 0.00 0.00 0.00 80 1019.2
20260905220049 73 90 0.0 0.0 0.00 0.00 0.00 80 1019.2
20260905215820 74 90 0.0 0.0 0.00 0.00 0.00 80 1019.3
20260905215329 74 90 0.0 0.0 0.00 0.00 0.00 79 1019.1
20260905214830 74 90 0.0 0.0 0.00 0.00 0.00 79 1019.1
20260905214541 74 90 0.0 0.0 0.00 0.00 0.00 79 1018.9
20260905214339 74 90 0.0 0.0 0.00 0.00 0.00 79 1019.0
20260905213820 74 90 0.0 0.0 0.00 0.00 0.00 79 1019.1
20260905213329 74 82 0.0 0.0 0.00 0.00 0.00 80 1019.0
20260905213018 73 266 0.0 0.0 0.00 0.00 0.00 81 1018.9
20260905212829 73 264 0.0 0.0 0.00 0.00 0.00 81 1018.9
20260905212323 73 79 0.0 0.0 0.00 0.00 0.00 82 1018.9
20260905211827 73 263 0.0 0.0 0.00 0.00 0.00 80 1018.9
20260905211545 73 262 0.0 0.0 0.00 0.00 0.00 80 1018.8
20260905211344 74 262 0.0 0.0 0.00 0.00 0.00 80 1018.8
20260905210816 74 263 0.0 0.0 0.00 0.00 0.00 80 1018.9
20260905210344 74 262 0.0 0.0 0.00 0.00 0.00 80 1019.0
20260905210038 73 263 0.0 0.0 0.00 0.00 0.00 80 1018.8
20260905205840 74 263 0.0 0.0 0.00 0.00 0.00 80 1018.9
20260905205314 74 267 0.0 0.0 0.00 0.00 0.00 79 1019.0
20260905204817 74 276 0.0 0.0 0.00 0.00 0.00 79 1019.0
20260905204546 73 276 0.0 0.0 0.00 0.00 0.00 79 1018.8
20260905204339 74 276 0.0 0.0 0.00 0.00 0.00 79 1018.9
20260905203816 74 276 0.0 0.0 0.00 0.00 0.00 79 1018.9
20260905203320 73 276 0.0 0.0 0.00 0.00 0.00 80 1018.9
20260905203103 73 276 0.0 0.0 0.00 0.00 0.00 80 1018.8
20260905202859 73 276 0.0 0.0 0.00 0.00 0.00 79 1018.9
20260905202332 73 276 0.0 0.0 0.00 0.00 0.00 79 1018.9
20260905201836 73 276 0.0 0.0 0.00 0.00 0.00 79 1018.8
20260905201518 73 276 0.0 0.0 0.00 0.00 0.00 78 1018.8
20260905201330 73 276 0.0 0.0 0.00 0.00 0.00 78 1018.8
20260905200837 74 276 0.0 0.0 0.00 0.00 0.00 78 1018.9
20260905200330 74 276 0.0 0.0 0.00 0.00 0.00 78 1018.8
20260905200048 73 276 0.0 0.0 0.00 0.00 0.00 78 1018.8
20260905195338 74 276 0.0 0.0 0.00 0.00 0.00 78 1018.8
20260905194833 74 276 0.0 0.0 0.00 0.00 0.00 79 1018.8
20260905194537 73 276 0.0 0.0 0.00 0.00 0.00 79 1018.8
20260905194353 74 276 0.0 0.0 0.00 0.00 0.00 79 1018.9
20260905193827 74 276 0.0 0.0 0.00 0.00 0.00 78 1018.8
20260905193320 74 276 0.0 0.0 0.00 0.00 0.00 78 1018.8
20260905193023 74 276 0.0 0.0 0.00 0.00 0.00 78 1018.7
20260905192821 74 276 0.0 0.0 0.00 0.00 0.00 78 1018.7
20260905192340 75 276 0.0 0.0 0.00 0.00 0.00 77 1018.6
20260905191827 75 276 0.0 0.0 0.00 0.00 0.00 77 1018.6
20260905191535 74 276 0.0 0.0 0.00 0.00 0.00 77 1018.5
20260905191345 75 276 0.0 0.0 0.00 0.00 0.00 77 1018.6
20260905190926 75 276 0.0 0.0 0.00 0.00 0.00 77 1018.5
20260905190348 75 276 0.0 0.0 0.00 0.00 0.00 77 1018.5
20260905190032 75 276 0.0 0.0 0.00 0.00 0.00 77 1018.5
20260905185936 75 276 0.0 0.0 0.00 0.00 0.00 77 1018.5
20260905185341 76 276 0.0 0.0 0.00 0.00 0.00 77 1018.4
20260905184817 76 276 0.0 0.0 0.00 0.00 0.00 76 1018.4
20260905184527 75 276 0.0 0.0 0.00 0.00 0.00 76 1018.3
20260905184333 76 276 0.0 0.0 0.00 0.00 0.00 76 1018.5
20260905183825 76 276 0.0 0.0 0.00 0.00 0.00 76 1018.3
20260905183346 77 276 0.0 0.0 0.00 0.00 0.00 75 1018.3
20260905183029 76 276 0.0 0.0 0.00 0.00 0.00 75 1018.2
20260905182831 77 276 0.0 0.0 0.00 0.00 0.00 75 1018.2
20260905182327 77 276 0.0 0.0 0.00 0.00 0.00 75 1018.2
20260905181831 77 275 0.0 0.0 0.00 0.00 0.00 75 1018.2
20260905181505 76 277 0.0 0.0 0.00 0.00 0.00 74 1018.1
20260905181332 77 277 0.0 0.0 0.00 0.00 0.00 74 1018.2
20260905180818 77 277 0.0 0.0 0.00 0.00 0.00 73 1018.2
20260905180315 78 276 0.0 0.0 0.00 0.00 0.00 72 1018.1
20260905180025 77 276 0.0 0.0 0.00 0.00 0.00 72 1018.0
20260905175817 78 275 0.0 0.0 0.00 0.00 0.00 72 1018.1
20260905175313 78 275 0.0 0.0 0.00 0.00 0.00 71 1018.1
20260905174840 79 270 0.0 0.0 0.00 0.00 0.00 70 1018.0
20260905174504 78 274 0.0 0.0 0.00 0.00 0.00 70 1017.9
20260905174315 79 274 0.0 0.0 0.00 0.00 0.00 69 1018.0
20260905173820 79 284 0.0 0.0 0.00 0.00 0.00 69 1018.0
20260905173317 80 290 0.0 0.0 0.00 0.00 0.00 68 1018.0
20260905173026 80 281 0.0 0.0 0.00 0.00 0.00 68 1017.8
20260905172845 81 284 0.0 0.0 0.00 0.00 0.00 67 1018.0
20260905172325 81 286 0.0 0.0 0.00 0.00 0.00 66 1018.0
20260905171832 82 276 0.0 2.6 0.00 0.00 0.00 64 1017.9
20260905171557 82 281 0.0 2.6 0.00 0.00 0.00 64 1017.8
20260905171313 83 295 0.0 2.6 0.00 0.00 0.00 65 1018.0
20260905170815 83 291 0.0 1.7 0.00 0.00 0.00 64 1017.9
20260905170344 83 269 0.0 2.6 0.00 0.00 0.00 63 1017.9
20260905170026 83 281 0.0 2.6 0.00 0.00 0.00 62 1017.8
20260905165832 83 223 0.0 2.6 0.00 0.00 0.00 63 1017.9
20260905165333 84 276 0.0 3.5 0.00 0.00 0.00 62 1017.8
20260905164814 84 9 0.0 0.0 0.00 0.00 0.00 59 1017.8
20260905164516 84 283 0.0 0.0 0.00 0.00 0.00 59 1017.7
20260905164323 84 276 0.0 0.0 0.00 0.00 0.00 58 1017.7
20260905163825 84 262 0.0 0.0 0.00 0.00 0.00 58 1017.8
20260905163352 84 285 0.0 3.5 0.00 0.00 0.00 58 1017.9
20260905163047 84 260 0.0 3.5 0.00 0.00 0.00 57 1017.7
20260905162841 85 198 0.0 3.5 0.00 0.00 0.00 57 1017.9
20260905162321 85 287 0.0 4.3 0.00 0.00 0.00 56 1017.9
20260905161822 85 251 0.0 3.5 0.00 0.00 0.00 57 1017.9
20260905161520 84 279 0.0 5.2 0.00 0.00 0.00 57 1017.7
20260905161351 85 284 0.0 6.1 0.00 0.00 0.00 57 1017.9
20260905160839 85 257 0.9 6.1 0.00 0.00 0.00 56 1017.8
20260905160320 85 247 0.0 4.3 0.00 0.00 0.00 57 1017.7
20260905160031 85 322 0.0 4.3 0.00 0.00 0.00 56 1017.7
20260905155845 85 262 0.0 4.3 0.00 0.00 0.00 56 1017.8
20260905155331 85 279 0.9 4.3 0.00 0.00 0.00 54 1017.7
20260905154820 85 302 0.9 4.3 0.00 0.00 0.00 56 1017.8
20260905154549 85 290 0.0 3.5 0.00 0.00 0.00 55 1017.7
20260905154323 85 264 0.0 2.6 0.00 0.00 0.00 54 1017.8
20260905153831 86 297 0.0 2.6 0.00 0.00 0.00 52 1017.7
20260905153315 86 293 0.0 1.7 0.00 0.00 0.00 55 1017.6
20260905153042 85 288 0.0 7.8 0.00 0.00 0.00 57 1017.7
20260905152817 86 289 0.0 7.8 0.00 0.00 0.00 57 1017.6
20260905152324 86 316 1.7 7.8 0.00 0.00 0.00 56 1017.6
20260905151826 87 245 0.0 3.5 0.00 0.00 0.00 56 1017.7
20260905151537 86 250 0.0 3.5 0.00 0.00 0.00 56 1017.6
20260905151314 87 288 0.0 4.3 0.00 0.00 0.00 56 1017.7
20260905150816 87 273 0.9 6.1 0.00 0.00 0.00 56 1017.9
20260905150339 87 256 0.0 6.1 0.00 0.00 0.00 56 1017.8
20260905150052 87 257 0.0 6.1 0.00 0.00 0.00 54 1017.7
20260905145825 87 270 0.9 5.2 0.00 0.00 0.00 56 1017.9
20260905145327 87 278 0.9 6.1 0.00 0.00 0.00 55 1017.7
20260905144835 87 265 1.7 7.0 0.00 0.00 0.00 55 1017.8
20260905144522 87 268 0.0 7.0 0.00 0.00 0.00 55 1017.7
20260905144317 87 263 0.9 7.0 0.00 0.00 0.00 55 1017.8
20260905143817 87 254 1.7 7.0 0.00 0.00 0.00 53 1017.9
20260905143326 88 245 0.9 6.1 0.00 0.00 0.00 51 1017.8
20260905143149 88 293 0.0 5.2 0.00 0.00 0.00 51 1017.8
20260905141537 88 263 0.0 0.0 0.00 0.00 0.00 53 1017.7
20260905141331 88 255 0.0 0.0 0.00 0.00 0.00 53 1017.8
20260905140833 88 271 0.0 3.5 0.00 0.00 0.00 52 1017.9
20260905140336 88 173 0.0 5.2 0.00 0.00 0.00 55 1018.0
20260905140007 87 296 0.9 5.2 0.00 0.00 0.00 54 1017.8
20260905135842 88 260 0.0 5.2 0.00 0.00 0.00 53 1017.9
20260905135406 89 279 0.0 4.3 0.00 0.00 0.00 52 1018.0
20260905134826 88 267 0.0 4.3 0.00 0.00 0.00 54 1018.1
20260905134600 87 259 0.9 4.3 0.00 0.00 0.00 53 1017.9
20260905134356 88 250 0.0 2.6 0.00 0.00 0.00 53 1018.1
20260905133817 88 252 0.0 5.2 0.00 0.00 0.00 54 1018.1
20260905133318 88 285 0.0 7.8 0.00 0.00 0.00 53 1018.1
20260905133024 87 276 0.0 7.8 0.00 0.00 0.00 54 1018.1
20260905132826 88 266 1.7 7.8 0.00 0.00 0.00 54 1018.2
20260905132324 88 304 0.9 6.1 0.00 0.00 0.00 53 1018.2
20260905131853 89 265 0.0 0.9 0.00 0.00 0.00 52 1018.2
20260905131555 88 295 0.0 0.9 0.00 0.00 0.00 52 1018.2
20260905131340 88 52 0.0 0.9 0.00 0.00 0.00 53 1018.3
20260905130840 88 212 0.0 6.1 0.00 0.00 0.00 52 1018.4
20260905130324 88 314 0.9 6.1 0.00 0.00 0.00 52 1018.5
20260905130058 88 274 0.9 6.1 0.00 0.00 0.00 50 1018.5
20260905125853 88 261 0.0 3.5 0.00 0.00 0.00 50 1018.5
20260905125352 88 278 0.0 1.7 0.00 0.00 0.00 50 1018.6
20260905124831 88 225 0.0 5.2 0.00 0.00 0.00 53 1018.6
20260905124606 87 263 0.0 5.2 0.00 0.00 0.00 53 1018.6
20260905124401 88 293 0.9 5.2 0.00 0.00 0.00 51 1018.7
20260905123840 88 248 0.0 5.2 0.00 0.00 0.00 53 1018.7
20260905123329 88 283 0.9 5.2 0.00 0.00 0.00 53 1018.7
20260905123011 87 268 0.0 3.5 0.00 0.00 0.00 53 1018.7
20260905122830 88 245 0.0 3.5 0.00 0.00 0.00 54 1018.7
20260905122337 87 274 0.0 7.0 0.00 0.00 0.00 54 1018.7
20260905121819 87 290 1.7 7.0 0.00 0.00 0.00 54 1018.7
20260905121545 87 306 0.0 5.2 0.00 0.00 0.00 53 1018.7
20260905121322 87 271 0.0 6.1 0.00 0.00 0.00 53 1018.8
20260905120831 87 304 2.6 7.0 0.00 0.00 0.00 54 1018.8
20260905120329 87 238 1.7 7.0 0.00 0.00 0.00 54 1018.8
20260905120030 87 248 0.0 0.9 0.00 0.00 0.00 54 1018.7
20260905115839 87 269 0.0 0.9 0.00 0.00 0.00 55 1018.8
20260905115321 87 290 0.0 0.0 0.00 0.00 0.00 55 1018.8
20260905114824 87 297 0.0 5.2 0.00 0.00 0.00 54 1018.9
20260905114522 86 295 0.0 5.2 0.00 0.00 0.00 54 1018.9
20260905114352 87 314 0.0 5.2 0.00 0.00 0.00 56 1019.1
20260905113839 87 314 0.0 5.2 0.00 0.00 0.00 53 1019.1
20260905113321 87 239 0.9 5.2 0.00 0.00 0.00 54 1019.0